F4LPU-13 Weather Reports


time (UTC)temp
C
wind
direction
speed
KPH
gust
KPH
rain 1hr
cm
rain 24hr
cm
rain mn
cm
humidity
%
barometer
mb
20260507090502 11 286 3.2 9.7 0.00 0.13 0.00 9 974.0
20260507081502 11 286 3.2 9.7 0.00 0.13 0.00 9 974.0
20260507072502 9 184 3.2 8.0 0.00 0.13 0.00 9 974.0
20260507063502 9 184 3.2 8.0 0.00 0.13 0.00 9 974.0
20260507054503 9 206 1.6 0.0 0.00 0.13 0.00 9 973.0
20260507045503 11 317 4.8 14.5 0.00 0.94 0.00 9 971.0
20260506195504 13 3 4.8 11.3 0.03 0.94 0.00 8 970.0
20260506195205 13 3 4.8 11.3 0.03 0.94 0.00 8 970.0
20260506190504 13 3 4.8 11.3 0.03 0.94 0.00 8 970.0
20260506181504 13 3 4.8 11.3 0.03 0.94 0.00 8 970.0
20260506172504 15 180 0.0 12.9 0.00 0.94 0.00 7 970.0
20260506163504 15 180 0.0 12.9 0.00 0.94 0.00 7 970.0
20260506163205 15 180 0.0 12.9 0.00 0.94 0.00 7 970.0
20260506154504 15 90 1.6 17.7 0.00 0.94 0.00 7 970.0
20260506145503 15 90 1.6 17.7 0.00 0.94 0.00 7 970.0
20260506140503 15 90 1.6 17.7 0.00 0.94 0.00 7 970.0
20260506131503 14 44 1.6 11.3 0.00 0.94 0.00 7 970.0
20260506122503 14 44 1.6 11.3 0.00 0.94 0.00 7 970.0
20260506113503 12 118 3.2 12.9 0.00 1.35 0.00 8 970.0
20260506104503 12 118 3.2 12.9 0.00 1.35 0.00 8 970.0
20260506095503 10 132 4.8 11.3 0.00 1.35 0.00 9 969.0